Overview Statistics Trail Chart Weather Telemetry Raw packets
 

This is the latest recevied weather packets stored in our database for station/object NL3D. If no packets are shown the sender has not sent any weather packets the latest 10 day(s).

<< 49 50 51 52 53 54 55 >>
Time Temp. Humidity Pressure Rain* Wind** Luminosity Snow
1777352675 6.67° C 65% 1007.5 hPa 0 mm - 7 W/m² -
1777352372 6.67° C 64% 1007.5 hPa 0 mm - 12 W/m² -
1777352069 7.22° C 59% 1007.8 hPa 0 mm - 18 W/m² -
1777351766 6.67° C 62% 1007.9 hPa 0 mm - 9 W/m² -
1777351464 6.67° C 66% 1007.9 hPa 0 mm - 12 W/m² -
1777351163 6.67° C 67% 1007.8 hPa 0 mm - 31 W/m² -
1777350862 6.67° C 69% 1007.6 hPa 0 mm - 58 W/m² -
1777350561 6.67° C 68% 1007.4 hPa 0 mm - 34 W/m² -
1777350259 6.67° C 69% 1007.7 hPa 0 mm - 23 W/m² -
1777349956 6.67° C 68% 1007.9 hPa 0 mm - 20 W/m² -
1777349653 7.22° C 66% 1007.6 hPa 0 mm - 28 W/m² -
1777349351 7.22° C 63% 1008.2 hPa 0 mm - 56 W/m² -
1777349049 7.78° C 62% 1008 hPa 0 mm - 52 W/m² -
1777348746 7.78° C 61% 1008.2 hPa 0 mm - 44 W/m² -
1777348444 7.78° C 57% 1008.2 hPa 0 mm - 43 W/m² -
1777348141 7.78° C 60% 1008.3 hPa 0 mm - 49 W/m² -
1777347839 7.78° C 62% 1008.4 hPa 0 mm - 52 W/m² -
1777347537 7.78° C 61% 1008.4 hPa 0 mm - 44 W/m² -
1777347232 8.33° C 55% 1008.5 hPa 0 mm - 40 W/m² -
1777346928 7.78° C 55% 1008.3 hPa 0 mm - 39 W/m² -
1777346625 7.78° C 53% 1008.2 hPa 0 mm - 37 W/m² -
1777346321 8.33° C 54% 1007.9 hPa 0 mm - 36 W/m² -
1777346019 7.78° C 56% 1008.4 hPa 0 mm - 34 W/m² -
1777345716 7.78° C 56% 1008.2 hPa 0 mm - 42 W/m² -
1777345413 7.22° C 66% 1008.2 hPa 0 mm - 39 W/m² -

* Rain latest hour (hover to see other rain measurements)
** Current wind speed in m/s (hover to see current wind gust speed)